Regional Weather Roundup
Issued by NWS

Home | Current Version | Previous Version | Text Only | Print | Product List | Glossary Off
Versions: 1 2 3 4 5 6 7 8 9 10 11 12 13 14 15 16 17 18 19 20 21 22 23 24 25 26 27 28 29 30 31 32 33 34 35 36 37 38 39 40 41 42 43 44 45 46 47 48 49 50

000
ASUS43 KMPX 241201
RWRMN
WEATHER ROUNDUP FOR MINNESOTA
NATIONAL WEATHER SERVICE TWIN CITIES/CHANHASSEN MN
700 AM CDT SUN MAY 24 2015


NOTE: "FAIR" INDICATES FEW OR NO CLOUDS BELOW 12,000 FEET WITH NO
SIGNIFICANT WEATHER AND/OR OBSTRUCTIONS TO VISIBILITY. N/A MEANS
CURRENT SKY AND/OR WEATHER CONDITIONS ARE NOT AVAILABLE.

MNZ060>063-068>070-241300-
   Twin Cities Metro

CITY           SKY/WX    TMP DP  RH WIND       PRES   REMARKS
TWIN CITIES    CLOUDY    62  49  62 E8        30.05S
6HR MIN TEMP:  59; 6HR MAX TEMP:  62; 6HR PCP:  0.02;

ST PAUL        CLOUDY    60  50  69 CALM      30.06F
CRYSTAL        CLOUDY    62  49  62 E3        30.04F
BLAINE         CLOUDY    61  52  72 E5        30.06S
LAKEVILLE      CLOUDY    57  50  77 CALM      30.05S
EDEN PRAIRIE   CLOUDY    61  48  62 E5        30.04S
6HR MIN TEMP:  60; 6HR MAX TEMP:  62; 6HR PCP: TRACE;

SOUTH ST PAUL  CLOUDY    62  47  59 CALM      30.06S
LAKE ELMO      CLOUDY    59  50  72 NE3       30.07S
$$
MNZ001>005-007-008-013>017-022>024-027-028-241300-
   Northwest Minnesota

CITY           SKY/WX    TMP DP  RH WIND       PRES   REMARKS
BEMIDJI        MOSUNNY   48  46  90 CALM      30.11S
HALLOCK        SUNNY     52  46  82 S5        30.07S
ROSEAU         SUNNY     52  45  76 CALM      30.09F
WARROAD        FAIR      52  46  82 CALM      30.09F
THIEF RVR FALL SUNNY     52  45  76 CALM      30.10S
CROOKSTON      SUNNY     54  46  76 CALM      30.10S
FOSSTON        MOSUNNY   52  46  82 CALM      30.10F
DETROIT LAKES  PTSUNNY   55  46  71 E3        30.09S
MOORHEAD       PTSUNNY   55  48  76 NE5       30.07S
PARK RAPIDS    CLOUDY    57  47  69 NE5       30.09F
MAHNOMEN       CLOUDY    53  48  83 NE3       30.09F
$$
MNZ006-009>011-018-025>026-241300-
   North Central Minnesota

CITY           SKY/WX    TMP DP  RH WIND       PRES   REMARKS
BAUDETTE       SUNNY     50  46  86 S3        30.09F
FLAG ISLAND    SUNNY     57  45  62 CALM      30.06F
INTL FALLS     SUNNY     50  45  83 CALM      30.10F
6HR MIN TEMP:  42; 6HR MAX TEMP:  54;

WASKISH        SUNNY     52  46  82 CALM      30.11F
BIG FORK       MOSUNNY   48  46  93 CALM      30.12F
LONGVILLE      PTSUNNY   52  50  93 CALM      30.09F
GRAND RAPIDS   CLOUDY    52  46  82 CALM      30.12F
CRANE LAKE     MOSUNNY   45  43  93 CALM      30.13F
COOK           MOSUNNY   48  45  87 CALM      30.13F
WALKER         CLOUDY    48  46  93 CALM      30.10F
$$
MNZ012-019>021-037-241300-
   Northeast Minnesota

CITY           SKY/WX    TMP DP  RH WIND       PRES   REMARKS
DULUTH         PTSUNNY   58  48  69 VRB3      30.12F
6HR MIN TEMP:  46; 6HR MAX TEMP:  58;

ELY            MOSUNNY   48  43  81 CALM      30.12F
HIBBING        MOSUNNY   47  42  83 CALM      30.12F
EVELETH        MOSUNNY   45  43  93 CALM      30.12F
DULUTH HARBOR  CLOUDY    55  48  76 CALM      30.12F
TWO HARBORS    MOSUNNY   61  50  67 S3        30.09F
GRAND MARAIS     N/A     48  39  71 SW6       30.09S
G MARAIS ARPRT MOSUNNY   59  39  47 W5        30.14S
$$
MNZ029>031-032-039>041-046>048-054>057-064-241300-
   West Central Minnesota

CITY           SKY/WX    TMP DP  RH WIND       PRES   REMARKS
FERGUS FALLS   CLOUDY    61  48  63 E7        30.05F
WHEATON        CLOUDY    57  48  72 E5        30.05S
MORRIS         CLOUDY    59  48  67 E8        30.02F
ALEXANDRIA     CLOUDY    59  46  62 E9        30.06F
ELBOW LAKE     CLOUDY    60  48  64 E8        30.04S
WADENA         CLOUDY    55  46  71 NE6       30.07S
GLENWOOD       CLOUDY    57  48  72 NE6       30.06S
APPLETON       CLOUDY    59  50  72 E7        30.02S
BENSON         CLOUDY    59  48  67 E5        30.03S
ORTONVILLE     LGT RAIN  57  48  72 E5        30.02S
MADISON        CLOUDY    57  52  82 CALM      30.02S
WILLMAR        FAIR      59  52  77 NE6       30.04F
$$
MNZ033>034-036-042>043-049>051-058-059-241300-
   Central Minnesota

CITY           SKY/WX    TMP DP  RH WIND       PRES   REMARKS
ST CLOUD       CLOUDY    58  48  69 E7        30.05S
6HR MIN TEMP:  57; 6HR MAX TEMP:  60; 6HR PCP: TRACE;

SAUK CENTRE    CLOUDY    57  48  71 E6        30.06S
PAYNESVILLE    CLOUDY    55  49  81 N3        30.05S
AITKIN         CLOUDY    55  48  76 CALM      30.08F
PINE RIVER     CLOUDY    55  48  76 CALM      30.12F
BRAINERD       CLOUDY    57  48  72 E3        30.09S
STAPLES        CLOUDY    57  46  67 CALM      30.08S
LONG PRAIRIE   CLOUDY    55  46  71 NE3       30.07S
LITTLE FALLS   CLOUDY    59  45  58 E3        30.06F
LITCHFIELD     CLOUDY    59  52  77 NE3       30.04F
BUFFALO        CLOUDY    59  48  67 E6        30.04F
MAPLE LAKE     CLOUDY    59  51  74 E3        30.05S
$$
MNZ037-044-045-052-053-241300-
   East Central Minnesota

CITY           SKY/WX    TMP DP  RH WIND       PRES   REMARKS
PRINCETON      PTSUNNY   61  50  67 E5        30.06S
MORA           CLOUDY    55  45  67 CALM      30.09F
CAMBRIDGE      PTSUNNY   63  48  59 E3        30.05S
RUSH CITY      CLOUDY    58  49  70 E5        30.08S
MOOSE LAKE     CLOUDY    54  46  76 N3        30.09S
HINCKLEY       CLOUDY    59  46  63 NE3       30.09F
CLOQUET        CLOUDY    54  45  71 CALM      30.11F
MCGREGOR       CLOUDY    55  46  71 CALM      30.10F
$$
MNZ071>073-080-081-089-090-097-098-241300-
   Southwest Minnesota

CITY           SKY/WX    TMP DP  RH WIND       PRES   REMARKS
MONTEVIDEO     RAIN      57  52  82 SE6       30.03S
GRANITE FALLS  LGT RAIN  59  52  78 E3        30.03S
CANBY          LGT RAIN  55  53  94 CALM      30.03R
MARSHALL       CLOUDY    57  54  88 E3        30.01R
REDWOOD FALLS  CLOUDY    58  51  78 CALM      30.01S
OLIVIA         CLOUDY    55  46  71 E5        30.01F
PIPESTONE      CLOUDY    59  57  94 E10       29.99S
WINDOM         CLOUDY    59  55  88 CALM      30.01S
WORTHINGTON    CLOUDY    57  54  88 E9        30.00R
JACKSON        CLOUDY    59  57  94 E9        30.02R FOG
TRACY          CLOUDY    59  56  91 E3        30.01R
SLAYTON        LGT RAIN  58  56  95 CALM      30.01S
$$
MNZ065>067-074>077-082>085-091>093-241300-
   South Central Minnesota

CITY           SKY/WX    TMP DP  RH WIND       PRES   REMARKS
MANKATO        CLOUDY    61  52  72 SE9       30.03F
NEW ULM        LGT RAIN  59  52  77 SE6       30.02R
ST JAMES       DRIZZLE   61  57  88 SE9       30.03R
FAIRMONT       CLOUDY    57  52  82 E9        30.02S
GLENCOE        CLOUDY    60  52  73 E8        30.03S
FARIBAULT      CLOUDY    59  54  82 CALM      30.05S
OWATONNA       CLOUDY    63  50  63 SE7       30.06R
WASECA         CLOUDY    59  52  77 SE6       30.06S
ALBERT LEA     LGT RAIN  63  54  72 SE9       30.05S
$$
MNZ078>079-086>088-094>096-241300-
   Southeast Minnesota

CITY           SKY/WX    TMP DP  RH WIND       PRES   REMARKS
ROCHESTER      CLOUDY    61  49  64 S10       30.09S
6HR MIN TEMP:  59; 6HR MAX TEMP:  62;

RED WING       CLOUDY    61  48  63 E3        30.06S
STANTON        CLOUDY    61  51  69 CALM      30.04S
DODGE CENTER   CLOUDY    61  52  72 S6        30.07S
WINONA         CLOUDY    59  54  82 S3        30.09R
AUSTIN         CLOUDY    61  54  77 SE6       30.06S
PRESTON        CLOUDY    60  49  67 SE3       30.08F
$$
ABBREVIATIONS USED IN REMARKS
   TC - TEMPERATURES IN CELSIUS
  WCI - WIND CHILL INDEX
   HX - HEAT INDEX
  VSB - VISIBILITY
$$



USA.gov is the U.S. government's official web portal to all federal, state and local government web resources and services.